Temp
27 27 28 28 28 28 28 28 27 27 27 26 26 23 23 23 22 22 22 21 22 21 21 21 20 20 20 20 20 21 21 20 17 19 19 19 19 18 18 18 18 18 18
28 27 28 28 28 27 27 28 27 27 26 24 23 21 22 23 22 22 22 21 21 21 20 20 20 20 20 19 19 19 19 19 19 18 18 18 18 18 18 18 18 18 18
27 27 28 28 27 27 27 27 26 26 25 24 21 23 21 22 22 22 22 22 21 20 20 20 19 19 19 19 19 18 19 19 19 18 17 17 17 18 18 17 17 18 18
27 27 27 27 28 28 27 27 26 25 24 24 24 26 25 22 20 21 21 21 21 20 20 20 19 19 19 18 18 18 18 18 18 18 17 17 17 17 17 17 17 17 17
28 27 27 28 28 27 26 26 25 26 24 24 25 24 25 22 21 21 21 21 20 20 20 19 19 19 18 18 18 18 18 17 17 17 16 16 16 17 17 16 16 16 17
27 27 27 27 27 26 26 26 26 25 23 25 23 24 23 19 21 21 21 21 20 20 19 19 19 19 18 18 18 17 17 17 17 17 16 16 17 17 17 16 16 16 14
28 27 27 27 27 26 26 26 25 24 24 23 23 21 20 19 20 21 21 20 20 20 19 19 18 18 18 18 18 17 17 17 17 17 17 17 17 17 17 16 16 16 16
28 28 27 27 26 27 26 25 23 24 23 22 22 23 20 19 20 20 20 20 20 20 19 19 19 18 18 18 18 17 17 17 17 17 17 17 17 16 16 16 16 15 16
27 27 27 27 27 27 26 24 23 22 20 20 22 22 20 20 20 20 20 20 20 19 19 19 19 18 18 18 17 17 17 17 17 17 17 17 16 17 16 16 15 14 14
27 28 28 28 27 26 24 24 22 20 20 21 21 21 20 20 19 20 20 19 19 19 19 19 19 19 18 18 18 17 17 17 17 17 17 17 17 17 18 18 16 15 13
28 28 26 25 25 24 23 22 20 20 20 20 19 19 19 20 19 19 19 19 19 19 19 19 19 19 19 19 18 18 18 18 18 17 17 17 17 17 17 17 17 16 14
25 24 23 23 22 21 20 20 20 21 20 18 18 17 18 19 19 18 18 19 19 19 19 19 19 19 19 19 18 18 18 18 17 17 17 17 17 16 16 15 15 15 14
21 20 21 20 20 20 20 19 19 19 18 17 17 17 17 17 18 18 18 19 19 19 19 19 19 19 19 19 18 18 17 17 17 17 17 17 17 16 15 15 15 14 14
21 20 20 20 20 20 20 20 20 18 18 17 16 16 17 17 17 17 18 19 19 19 19 19 19 19 18 19 18 18 17 18 17 17 17 17 16 16 15 15 14 14 14
21 21 21 21 21 20 20 19 19 19 19 18 18 18 17 16 17 18 18 18 19 19 19 18 18 18 18 18 18 18 18 19 18 18 17 16 16 15 15 15 14 14 13
21 21 21 21 20 20 19 19 19 19 19 19 20 19 18 19 19 18 18 19 19 18 18 18 17 17 18 18 18 18 18 19 18 18 17 16 15 15 15 14 14 13 13
22 22 21 21 20 19 19 19 18 18 19 19 19 19 19 19 19 19 19 19 19 18 18 18 18 18 18 18 18 18 18 18 17 17 16 16 15 14 14 14 14 14 14
22 22 21 21 20 20 19 19 19 19 18 18 18 18 19 18 19 19 19 18 17 17 18 18 18 18 18 19 18 18 18 17 16 16 15 14 14 13 13 13 13 14 13
22 22 22 22 20 20 19 19 19 18 18 18 19 18 18 18 18 19 18 18 18 18 18 18 18 18 18 18 18 17 16 16 15 14 13 13 13 13 13 13 13 13 12
25 23 22 22 21 20 19 18 18 17 18 18 18 19 18 18 18 17 17 17 18 18 18 19 19 18 18 18 17 16 16 14 14 13 13 12 12 12 12 13 13 12 12
24 21 21 21 20 20 21 19 18 17 17 17 17 18 18 18 17 18 17 18 18 18 19 19 18 18 17 16 16 15 14 13 12 12 11 11 11 12 12 13 13 12 12
22 21 21 20 20 19 20 20 19 17 16 16 17 17 17 18 17 18 18 18 18 19 18 18 18 17 17 16 15 14 13 12 11 10 10 11 11 12 12 12 13 13 12
21 20 20 20 20 20 19 20 19 17 17 17 17 17 16 17 17 18 18 18 19 19 18 18 17 16 15 15 14 13 12 11 11 10 10 11 11 11 12 12 12 12 12
21 20 20 19 18 19 18 18 19 18 17 17 17 17 16 17 17 18 18 19 19 18 17 17 17 16 15 14 13 12 12 12 11 11 11 11 11 11 12 12 12 11 11
20 19 19 19 18 18 17 18 18 17 16 17 18 17 17 17 16 18 18 19 18 18 17 16 15 15 14 13 13 13 13 13 13 12 12 11 11 11 11 11 11 12 11
19 19 19 19 18 17 17 18 17 16 15 16 18 17 17 17 18 19 18 18 18 17 16 15 14 13 13 13 13 13 13 13 13 13 12 12 12 12 12 12 12 13 12
Height
775 777 781 784 788 793 796 801 804 806 809 814 818 823 826 826 825 826 830 832 833 831 829 831 832 834 831 830 831 828 826 827 830 836 837 839 840 840 840 839 837 836 834
766 771 774 779 783 787 791 795 799 804 810 812 818 828 832 825 820 821 826 829 830 834 830 829 830 830 833 833 834 833 832 832 834 839 839 839 841 841 840 839 838 836 835
761 765 769 773 777 781 786 790 796 802 803 807 811 823 823 822 815 818 817 821 824 831 830 829 829 830 831 833 834 834 835 834 833 836 838 839 838 840 838 837 835 833 832
754 759 763 766 770 774 779 785 790 795 797 801 808 803 799 805 813 815 815 818 822 827 828 828 829 830 833 834 834 833 836 837 835 834 838 840 839 841 839 838 835 833 832
748 752 754 759 764 769 776 783 787 789 791 799 800 799 804 802 805 810 813 817 822 826 826 829 830 832 834 835 834 833 837 838 837 837 839 839 838 839 839 839 838 834 832
742 744 749 753 757 764 772 777 780 784 787 788 789 795 804 802 804 807 812 816 821 825 826 826 829 830 834 836 833 835 837 837 836 836 837 838 838 838 838 838 837 834 833
736 739 742 746 752 759 766 771 774 779 784 786 794 798 794 795 801 808 811 814 817 821 825 826 827 830 833 832 834 836 839 838 837 837 838 838 837 837 837 837 836 835 834
731 734 738 743 748 754 761 766 770 774 777 782 786 787 790 792 798 804 810 814 817 818 822 827 826 828 829 829 831 835 837 838 838 838 837 836 836 837 837 835 833 831 830
728 732 736 740 745 750 755 760 764 768 774 779 784 784 785 792 797 801 807 813 816 817 821 822 824 825 828 829 830 834 834 835 835 836 835 834 835 833 833 832 829 828 825
728 732 735 738 742 746 751 756 760 767 771 776 781 782 784 789 794 799 805 809 814 815 819 822 822 823 826 828 829 832 832 833 834 833 833 832 830 829 828 828 827 824 823
731 734 737 741 742 746 751 756 760 768 773 776 779 779 783 788 793 798 802 806 811 816 817 818 820 823 825 828 829 830 830 831 831 830 829 828 828 827 827 827 825 823 821
733 735 739 744 747 751 754 759 762 766 767 773 777 782 784 789 793 797 801 806 809 813 814 816 818 822 825 826 827 827 828 828 828 826 826 825 824 824 825 825 823 821 819
738 740 742 746 749 753 757 762 765 769 771 770 774 778 782 786 791 796 799 804 807 810 813 815 818 820 822 823 823 824 825 824 824 822 821 821 821 821 823 823 821 819 818
741 744 746 748 752 755 757 761 763 766 769 771 775 776 779 784 789 794 797 801 804 808 811 813 815 816 819 820 821 820 820 819 818 816 816 817 817 818 819 819 818 818 817
746 747 749 752 754 755 757 759 762 763 765 768 771 774 776 780 783 788 793 797 801 805 809 812 813 815 817 817 817 817 815 812 811 811 811 812 814 815 816 816 816 815 814
748 748 751 754 757 757 756 758 760 762 765 767 770 772 775 778 782 787 793 797 799 802 806 809 811 812 814 813 814 813 811 810 809 809 809 810 812 813 814 813 812 812 810
747 748 749 753 756 758 757 756 757 760 762 766 769 771 775 777 781 786 791 795 798 801 804 806 808 809 811 812 811 810 810 809 808 808 808 809 810 811 811 810 809 808 806
750 750 750 751 751 756 757 757 756 758 759 764 768 771 773 777 780 784 789 793 796 799 801 804 805 807 808 808 808 808 808 807 807 807 807 808 809 809 807 806 805 804 804
746 746 743 746 750 753 755 755 757 757 759 762 766 769 772 776 780 784 787 789 793 795 799 802 803 805 805 806 806 807 806 805 805 805 806 806 806 805 804 803 802 803 802
741 743 741 743 745 748 751 752 755 756 758 761 764 767 772 776 778 781 785 789 792 794 797 799 799 799 801 803 804 805 804 804 803 804 804 804 803 803 802 800 800 799 799
738 737 740 739 741 744 746 749 753 754 756 759 761 765 769 772 775 779 783 786 789 792 795 796 797 799 800 802 803 803 803 802 801 801 801 802 802 801 799 799 799 798 797
735 735 737 739 741 742 744 746 747 750 752 757 762 765 769 771 774 778 781 784 788 791 794 796 797 799 800 801 802 801 800 799 799 799 800 800 800 799 798 798 797 797 795
735 735 736 739 740 741 742 741 743 745 749 753 758 762 766 769 772 775 778 782 786 790 793 795 797 799 800 801 800 799 798 798 797 797 798 798 798 798 797 796 796 795 793
732 734 734 736 738 739 738 738 738 739 744 750 753 758 759 765 768 772 778 782 786 789 792 795 797 798 799 799 798 798 798 797 796 796 796 797 796 796 796 795 794 793 790
732 732 731 732 733 735 736 735 735 737 740 744 750 754 758 763 768 773 777 781 784 789 793 795 797 798 798 798 798 798 797 796 795 795 795 795 795 795 794 793 791 789 787
729 729 730 731 732 733 732 733 734 735 737 743 748 751 756 762 768 772 774 777 784 789 792 795 796 797 798 799 799 799 797 796 794 793 793 793 794 794 792 790 788 785 782
Wind_Speed
39 41 38 36 35 33 33 30 23 22 21 18 16 17 16 14 12 13 10 10 7 6 7 9 10 6 7 8 9 9 10 10 11 6 7 8 3 5 5 7 7 9 5
44 41 41 38 35 34 32 31 28 20 16 15 13 9 5 12 14 16 16 10 6 8 9 11 11 11 10 10 9 11 11 9 11 5 6 5 5 4 5 5 8 10 10
40 39 39 39 37 36 34 31 26 20 20 19 26 31 12 26 23 20 21 14 12 11 10 10 10 10 11 10 9 9 8 8 8 7 6 9 6 3 3 5 8 6 10
39 37 37 39 38 36 35 31 28 23 27 31 26 11 15 36 17 26 21 20 13 14 10 10 11 10 9 10 9 9 7 8 9 10 13 6 3 3 5 9 13 12 8
36 34 39 40 39 35 31 27 25 30 32 35 32 27 18 25 22 29 28 19 21 16 13 11 9 8 7 6 6 5 1 1 4 7 6 3 1 2 5 7 11 13 14
34 38 34 36 38 33 28 26 29 33 34 38 39 23 21 25 25 32 25 26 22 18 17 16 13 10 7 6 3 2 1 2 4 4 4 3 3 4 6 8 10 11 6
35 32 36 36 35 32 28 30 34 35 33 35 23 13 20 25 28 32 29 25 23 18 17 18 16 14 10 7 3 2 4 2 1 1 3 7 8 8 9 11 12 11 13
34 35 34 32 31 31 29 31 33 38 38 35 17 11 16 27 32 31 27 24 19 17 16 17 17 14 11 8 5 7 7 7 7 10 14 14 14 13 14 16 18 19 20
30 29 29 30 30 29 30 31 34 38 38 30 13 12 16 22 28 29 27 25 18 18 17 14 12 14 11 9 8 9 6 6 6 6 8 10 13 16 18 19 24 21 17
20 21 23 27 30 31 31 31 34 35 35 21 17 15 18 24 27 28 26 22 20 18 15 16 13 9 9 9 10 10 10 10 9 9 8 8 6 4 5 12 9 12 11
13 15 17 20 24 26 27 27 26 27 23 19 18 17 21 25 29 23 22 22 23 22 22 18 13 10 9 11 12 13 11 7 7 11 10 9 8 6 8 6 6 8 8
11 12 13 14 17 19 22 24 23 16 14 18 20 23 24 27 26 27 23 25 25 24 19 15 14 12 12 13 15 14 11 11 14 13 15 14 13 12 8 6 5 6 6
8 11 13 13 15 17 20 20 17 17 17 20 21 22 22 21 28 25 23 22 22 20 14 14 14 16 15 15 17 16 15 17 18 18 19 17 13 10 9 6 5 4 6
13 17 17 16 17 15 14 14 18 20 20 21 22 23 23 23 27 26 24 22 19 15 12 9 10 17 21 19 19 20 20 20 20 21 20 12 9 12 12 9 8 5 4
17 17 16 15 15 15 14 14 14 15 17 22 22 26 27 27 31 32 29 25 21 17 12 10 11 13 18 19 20 20 20 13 13 13 13 10 13 12 10 9 12 10 10
17 16 15 15 17 18 17 14 13 14 13 11 11 18 24 23 26 30 29 22 18 16 14 12 13 14 15 16 16 16 7 6 6 6 8 14 14 11 9 8 13 14 13
16 16 16 17 18 19 18 19 17 13 16 15 14 17 21 22 25 29 26 19 18 16 15 14 14 13 12 11 10 9 8 6 5 4 9 12 12 10 8 9 9 9 9
12 12 13 21 20 19 19 18 18 19 18 17 19 18 16 18 21 26 24 19 18 18 18 18 16 13 10 8 9 7 7 7 8 9 11 10 8 7 8 9 7 7 6
17 15 10 15 20 20 19 18 18 19 18 22 19 21 18 18 22 22 22 25 23 19 16 12 13 12 9 9 9 8 7 6 9 9 8 5 5 8 7 5 4 5 6
19 15 15 16 19 18 14 17 19 18 19 20 23 24 23 21 23 25 26 24 20 15 11 11 13 12 13 10 8 6 4 6 7 6 4 6 6 3 5 5 5 5 7
15 11 12 15 18 18 15 18 21 19 22 23 22 25 26 26 28 30 29 25 19 11 9 10 14 12 12 11 6 4 4 5 4 3 4 1 0 4 3 1 5 7 10
7 7 9 9 13 19 18 18 21 21 23 23 22 21 22 25 28 29 28 23 18 13 12 13 14 12 10 5 2 2 3 3 3 1 2 3 0 3 3 3 5 8 13
9 8 7 8 11 11 15 16 18 22 25 25 26 22 25 26 26 28 25 19 16 14 17 17 14 11 7 2 2 2 2 3 1 2 3 4 3 3 3 5 7 12 14
7 8 6 5 7 7 8 10 18 23 27 27 29 23 25 30 30 26 20 15 13 19 21 16 11 7 3 0 3 4 3 2 1 1 2 4 6 6 7 9 10 13 14
9 8 6 6 8 8 10 8 10 23 29 33 29 25 26 29 25 19 15 17 21 24 21 16 10 5 4 7 8 7 6 5 4 2 2 3 5 6 7 10 13 15 15
7 8 9 10 10 10 10 9 11 20 29 32 29 28 28 23 21 17 17 28 29 25 20 14 10 9 12 11 9 8 8 7 6 5 1 0 2 5 9 13 15 17 17
Wind_Direction
209 213 217 219 218 221 222 218 220 221 221 199 203 189 178 175 178 173 173 166 168 151 146 149 127 116 111 104 95 108 124 149 121 129 143 143 118 62 47 57 30 12 23
215 213 217 221 222 220 222 222 219 219 212 191 157 128 189 197 194 190 177 183 198 187 156 148 142 141 125 111 106 94 97 111 131 129 147 150 130 76 53 34 17 18 25
211 214 217 221 223 225 222 219 211 207 192 161 121 88 233 238 205 189 184 203 186 198 182 172 160 153 145 144 123 114 96 110 115 126 122 126 113 76 26 16 10 12 19
208 209 213 219 222 223 223 217 207 201 185 165 167 181 167 218 219 192 191 177 201 197 189 179 170 159 155 154 142 122 117 110 109 111 144 129 100 32 15 13 10 10 20
205 207 214 219 222 220 215 209 201 202 191 177 195 211 259 228 219 197 186 192 190 191 183 181 169 169 169 167 155 142 187 158 118 119 131 132 182 348 352 346 343 343 343
204 211 212 216 220 217 206 198 200 196 190 195 195 205 244 230 205 191 191 186 187 188 187 182 178 174 187 184 139 96 14 203 174 181 193 228 268 284 300 302 320 331 332
207 210 213 215 214 212 203 195 195 192 189 195 185 201 227 211 201 191 191 193 185 190 190 185 184 194 198 193 197 234 235 240 245 239 239 244 262 277 286 290 297 298 293
207 210 211 209 207 209 194 190 189 192 190 178 186 208 209 193 184 188 192 190 189 189 195 196 190 193 200 205 218 232 222 245 252 263 266 278 282 296 294 292 291 278 282
205 208 209 210 203 198 192 186 188 191 186 185 192 204 209 204 190 192 190 191 196 188 191 195 199 190 197 208 208 196 231 244 255 277 281 284 290 296 294 283 273 267 267
191 199 203 205 201 194 189 187 186 179 174 177 187 196 199 193 188 188 192 192 193 185 194 192 186 194 197 206 197 204 227 240 258 278 289 294 298 287 347 332 320 272 250
163 183 195 198 194 191 182 185 175 154 161 171 182 195 198 191 180 192 191 194 193 187 183 182 189 202 211 207 210 219 235 259 275 291 302 317 322 254 313 287 291 296 284
166 164 168 180 180 176 171 169 169 170 166 172 176 182 186 187 192 184 193 202 195 194 193 201 201 208 216 221 228 236 249 265 274 282 288 298 311 250 279 265 281 294 300
148 139 146 156 155 161 161 164 163 176 181 170 178 177 178 183 185 189 192 192 192 197 204 205 210 216 224 241 247 254 261 267 275 278 281 291 290 240 234 243 292 276 290
138 129 134 142 138 150 163 172 182 178 173 170 181 180 174 180 185 184 182 181 182 184 179 192 219 222 230 246 261 268 275 282 277 273 277 280 235 209 219 241 256 252 247
141 145 150 152 163 164 172 181 194 199 201 193 196 188 180 184 190 188 185 183 185 179 172 186 199 213 229 248 267 284 297 276 257 259 262 236 209 211 232 253 230 232 243
158 167 174 177 178 177 174 176 193 197 198 210 217 208 202 202 193 192 194 194 193 187 192 213 217 225 245 268 286 294 246 220 208 219 226 210 211 219 245 246 237 250 257
180 191 197 194 193 188 185 183 179 187 202 209 220 219 218 212 201 196 196 198 196 200 213 216 224 238 262 283 281 208 187 199 206 241 208 207 211 227 247 258 264 264 273
220 218 228 214 207 206 205 202 196 189 186 197 209 214 214 213 202 199 197 198 195 204 221 235 242 249 273 269 201 208 217 206 210 209 202 208 221 235 268 276 259 269 267
219 230 217 218 215 216 216 218 214 208 204 200 200 207 205 201 198 198 197 195 198 203 217 234 251 249 256 209 217 228 226 224 215 205 196 211 268 279 269 272 257 238 292
240 226 215 201 202 206 218 217 212 211 204 205 205 204 202 201 200 194 195 199 202 212 233 240 264 230 195 213 203 196 212 188 193 200 233 276 285 278 272 277 225 249 290
243 228 203 199 202 206 211 214 214 200 203 205 207 209 205 203 206 199 198 204 210 203 230 206 169 174 176 173 188 201 221 207 218 249 265 239 112 1 41 27 294 279 307
218 207 219 225 225 224 226 223 210 191 199 203 206 201 204 197 201 201 206 209 207 193 188 179 171 174 173 183 208 273 282 225 180 208 190 172 147 11 16 357 346 319 319
195 186 191 219 232 233 236 226 209 186 195 200 205 201 204 207 210 211 213 212 199 205 191 180 179 167 164 180 335 2 113 128 98 189 209 205 244 293 343 316 316 326 329
215 215 210 240 249 253 269 272 218 199 196 196 202 209 216 210 214 216 212 200 182 176 174 178 176 164 169 325 98 93 82 72 42 248 220 235 255 273 290 297 313 327 326
230 225 233 262 255 254 249 243 218 192 188 187 196 210 218 210 212 205 201 208 200 170 171 167 164 160 139 126 111 93 73 59 46 10 273 269 281 292 294 304 314 314 315
242 237 244 256 244 243 234 230 199 181 178 186 194 208 211 199 193 198 186 161 162 168 164 159 148 134 129 119 100 77 56 43 28 10 353 285 307 319 318 317 318 315 314